Location: Poughquag
(41.6090°N, 73.6820°W)
Time: 09:42:03
(UTC-04:00)

A-11 Canister half - Visible Passes

Search period start: 14 October 2019 00:00
Search period end: 24 October 2019 00:00
Orbit: 1514 x 1686 km, 47.2° (Epoch: 13 October)

Date Brightness Start Highest point End Pass type
(mag) Time Alt. Az. Time Alt. Az. Time Alt. Az.
14 Oct 10.9 02:04:19 15° E 02:04:19 15° E 02:06:37 10° E visible
14 Oct 9.2 04:02:32 54° S 04:04:12 60° SE 04:13:33 10° ENE visible
14 Oct 9.1 06:00:45 15° W 06:09:11 72° NNW 06:18:38 10° ENE visible
15 Oct 11.1 01:42:55 11° E 01:42:55 11° E 01:43:20 10° E visible
15 Oct 9.2 03:41:08 57° SE 03:41:18 57° SE 03:50:36 10° ENE visible
15 Oct 9.1 05:39:21 22° W 05:46:13 73° NNW 05:55:42 10° ENE visible
16 Oct 9.5 03:19:40 52° ESE 03:19:40 52° ESE 03:27:40 10° ENE visible
16 Oct 9.0 05:17:52 31° W 05:23:15 75° NNW 05:32:46 10° ENE visible
17 Oct 9.8 02:58:09 42° E 02:58:09 42° E 03:04:44 10° ENE visible
17 Oct 9.0 04:56:22 42° W 05:00:17 77° NNW 05:09:51 10° ENE visible
18 Oct 10.2 02:36:37 33° E 02:36:37 33° E 02:41:46 10° ENE visible
18 Oct 8.9 04:34:50 56° W 04:37:20 79° NNW 04:46:55 10° ENE visible
18 Oct 9.3 06:33:30 10° WNW 06:43:09 63° N 06:52:27 10° E visible
19 Oct 10.5 02:15:04 26° E 02:15:04 26° E 02:18:49 10° ENE visible
19 Oct 8.9 04:13:15 72° W 04:14:23 81° NNW 04:24:00 10° ENE visible
19 Oct 9.3 06:11:27 14° WNW 06:20:10 63° N 06:29:29 10° E visible
20 Oct 10.8 01:53:28 19° ENE 01:53:28 19° ENE 01:55:51 10° ENE visible
20 Oct 8.9 03:51:40 83° N 03:51:40 83° N 04:01:05 10° ENE visible
20 Oct 9.2 05:49:52 20° WNW 05:57:10 63° N 06:06:32 10° E visible
21 Oct 11.1 01:31:51 14° ENE 01:31:51 14° ENE 01:32:52 10° ENE visible
21 Oct 9.2 03:30:03 68° NE 03:30:03 68° NE 03:38:10 10° ENE visible
21 Oct 9.2 05:28:15 27° WNW 05:34:11 63° N 05:43:35 10° E visible
22 Oct 9.5 03:08:26 53° ENE 03:08:26 53° ENE 03:15:14 10° ENE visible
22 Oct 9.2 05:06:38 35° WNW 05:11:12 63° N 05:20:37 10° E visible
23 Oct 9.9 02:46:49 40° ENE 02:46:49 40° ENE 02:52:19 10° ENE visible
23 Oct 9.2 04:45:00 45° WNW 04:48:13 63° N 04:57:40 10° ENE visible
23 Oct 9.2 06:44:16 10° WNW 06:54:01 79° NNE 07:03:25 10° ESE visible
